Location: Bougoura
(13.1861°N, 5.0773°W)
Time: 10:49:20
(UTC+00:00)

Okean O Rocket - Pass Details

Date: 19 January 2021
Orbit: 622 x 645 km, 98.2° (Epoch: 25 February)

Event Time Altitude Azimuth Distance (km) Brightness Sun altitude
Rises 19:17:01 0° 204° (SSW) 2,944 5.7 -15.1°
Reaches altitude 10° 19:20:12 10° 229° (SW) 2,036 5.3 -15.8°
Maximum altitude 19:22:32 14° 261° (W) 1,775 5.1 -16.4°
Drops below altitude 10° 19:24:52 10° 293° (WNW) 2,036 4.9 -16.9°
Sets 19:28:04 0° 318° (NW) 2,944 5.4 -17.6°
